DW5963 Weather Reports


time (UTC)temp
C
wind
direction
speed
KPH
gust
KPH
rain 1hr
cm
rain 24hr
cm
rain mn
cm
humidity
%
barometer
mb
20260504224048 8 360 30.6 0.0 0.00 0.00 0.00 39 1010.5
20260504223547 9 360 27.4 0.0 0.00 0.00 0.00 40 1010.4
20260504223045 8 360 27.4 0.0 0.00 0.00 0.00 40 1010.5
20260504222547 8 360 29.0 0.0 0.00 0.00 0.00 41 1010.6
20260504222044 9 360 27.4 0.0 0.00 0.00 0.00 39 1010.4
20260504221545 9 360 25.7 0.0 0.00 0.00 0.00 41 1010.4
20260504221044 9 360 25.7 0.0 0.00 0.00 0.00 41 1010.4
20260504220544 9 360 27.4 0.0 0.00 0.00 0.00 42 1010.4
20260504220045 8 360 29.0 0.0 0.00 0.00 0.00 41 1010.4
20260504215045 8 360 30.6 0.0 0.00 0.00 0.00 42 1010.5
20260504214553 8 360 27.4 0.0 0.00 0.00 0.00 42 1010.3
20260504214044 8 360 24.1 0.0 0.00 0.00 0.00 41 1010.3
20260504213544 10 360 25.7 0.0 0.00 0.00 0.00 38 1010.4
20260504213043 9 360 24.1 0.0 0.00 0.00 0.00 42 1010.4
20260504212543 8 360 22.5 0.0 0.00 0.00 0.00 46 1010.4
20260504212045 8 360 24.1 0.0 0.00 0.00 0.00 49 1010.5
20260504211543 7 360 22.5 0.0 0.00 0.00 0.00 51 1010.6
20260504211043 7 360 22.5 0.0 0.00 0.00 0.00 50 1010.6
20260504210543 7 360 20.9 0.0 0.00 0.00 0.00 52 1010.6
20260504210055 7 360 20.9 0.0 0.00 0.00 0.00 53 1010.7
20260504205042 7 360 22.5 0.0 0.00 0.00 0.00 53 1010.8
20260504204557 7 360 24.1 0.0 0.00 0.00 0.00 51 1010.8
20260504204042 7 360 24.1 0.0 0.00 0.00 0.00 51 1010.7
20260504203542 7 360 24.1 0.0 0.00 0.00 0.00 51 1010.6
20260504203044 7 360 24.1 0.0 0.00 0.00 0.00 51 1010.6
20260504202542 7 360 24.1 0.0 0.00 0.00 0.00 51 1010.7
20260504202042 7 360 25.7 0.0 0.00 0.00 0.00 51 1010.6
20260504201541 7 360 25.7 0.0 0.00 0.00 0.00 50 1010.6
20260504201041 7 360 25.7 0.0 0.00 0.00 0.00 51 1010.6
20260504200541 7 360 25.7 0.0 0.00 0.00 0.00 50 1010.6
20260504200040 7 360 25.7 0.0 0.00 0.00 0.00 50 1010.6
20260504195041 7 360 24.1 0.0 0.00 0.00 0.00 49 1010.5
20260504194539 7 360 25.7 0.0 0.00 0.00 0.00 49 1010.6
20260504194039 7 360 25.7 0.0 0.00 0.00 0.00 49 1010.6
20260504193538 7 360 24.1 0.0 0.00 0.00 0.00 48 1010.5
20260504193038 7 360 24.1 0.0 0.00 0.00 0.00 47 1010.5
20260504192537 7 360 25.7 0.0 0.00 0.00 0.00 46 1010.4
20260504192037 7 360 29.0 0.0 0.00 0.00 0.00 45 1010.4
20260504191537 8 360 27.4 0.0 0.00 0.00 0.00 43 1010.3
20260504191037 8 360 25.7 0.0 0.00 0.00 0.00 45 1010.2
20260504190537 7 360 25.7 0.0 0.00 0.00 0.00 46 1010.3
20260504190036 7 360 24.1 0.0 0.00 0.00 0.00 44 1010.3
20260504185040 7 360 22.5 0.0 0.00 0.00 0.00 46 1010.3
20260504184537 7 360 22.5 0.0 0.00 0.00 0.00 47 1010.3
20260504184037 7 360 22.5 0.0 0.00 0.00 0.00 47 1010.3
20260504183537 7 360 22.5 0.0 0.00 0.00 0.00 48 1010.3
20260504183036 7 360 22.5 0.0 0.00 0.00 0.00 48 1010.4
20260504182536 7 360 22.5 0.0 0.00 0.00 0.00 48 1010.3
20260504182037 7 360 22.5 0.0 0.00 0.00 0.00 49 1010.4
20260504181536 6 360 24.1 0.0 0.00 0.00 0.00 49 1010.4
20260504181036 6 360 25.7 0.0 0.00 0.00 0.00 48 1010.3
20260504180536 7 360 27.4 0.0 0.00 0.00 0.00 48 1010.3
20260504180036 6 360 25.7 0.0 0.00 0.00 0.00 49 1010.4
20260504175035 6 360 27.4 0.0 0.00 0.00 0.00 48 1010.2
20260504174537 6 360 27.4 0.0 0.00 0.00 0.00 47 1010.3
20260504174034 7 360 29.0 0.0 0.00 0.00 0.00 46 1010.1
20260504173533 7 360 29.0 0.0 0.00 0.00 0.00 45 1010.1
20260504173039 7 360 29.0 0.0 0.00 0.00 0.00 48 1010.0
20260504172534 7 360 30.6 0.0 0.00 0.00 0.00 48 1010.1
20260504172032 7 360 32.2 0.0 0.00 0.00 0.00 48 1010.1
20260504171532 7 360 32.2 0.0 0.00 0.00 0.00 48 1009.9
20260504171033 7 360 32.2 0.0 0.00 0.00 0.00 51 1009.9
20260504170532 7 360 29.0 0.0 0.00 0.00 0.00 52 1009.9
20260504151023 6 360 25.7 0.0 0.00 0.00 0.00 63 1008.9
20260504150523 6 360 25.7 0.0 0.00 0.00 0.00 63 1008.9
20260504141020 7 360 19.3 0.0 0.00 0.00 0.00 58 1008.7
20260504140521 7 360 17.7 0.0 0.00 0.00 0.00 59 1008.7
20260504130519 5 360 19.3 0.0 0.00 0.00 0.00 65 1008.6
20260504110558 6 360 20.9 0.0 0.00 0.00 0.00 57 1007.1
20260504100550 7 360 20.9 0.0 0.00 0.00 0.00 53 1006.6
20260504081534 9 360 20.9 0.0 0.00 0.00 0.00 46 1005.9
20260504081030 9 360 19.3 0.0 0.00 0.00 0.00 46 1005.7
20260504080529 9 360 17.7 0.0 0.00 0.00 0.00 47 1005.6
20260504050511 13 360 20.9 0.0 0.00 0.00 0.00 40 1003.3
20260504050012 13 360 19.3 0.0 0.00 0.00 0.00 40 1003.3
20260504045010 13 360 19.3 0.0 0.00 0.00 0.00 41 1003.0
20260504044514 13 360 19.3 0.0 0.00 0.00 0.00 43 1003.0
20260504044010 13 360 19.3 0.0 0.00 0.00 0.00 44 1003.1
20260504043510 13 360 19.3 0.0 0.00 0.00 0.00 44 1003.2
20260504043013 13 360 20.9 0.0 0.00 0.00 0.00 44 1003.3
20260504042509 13 360 24.1 0.0 0.00 0.00 0.00 43 1003.3
20260504042009 13 360 20.9 0.0 0.00 0.00 0.00 42 1003.2
20260504041532 13 360 19.3 0.0 0.00 0.00 0.00 43 1003.1
20260504041009 14 360 19.3 0.0 0.00 0.00 0.00 43 1003.1
20260504040510 14 360 20.9 0.0 0.00 0.00 0.00 42 1002.9
20260504040015 14 360 20.9 0.0 0.00 0.00 0.00 41 1002.7
20260504035010 14 360 17.7 0.0 0.00 0.00 0.00 40 1002.5
20260504034511 15 360 17.7 0.0 0.00 0.00 0.00 40 1002.3
20260504034009 15 360 20.9 0.0 0.00 0.00 0.00 39 1002.1
20260504033509 15 360 24.1 0.0 0.00 0.00 0.00 38 1001.9
20260504033009 15 360 25.7 0.0 0.00 0.00 0.00 38 1001.8
20260504032511 16 360 27.4 0.0 0.00 0.00 0.00 38 1001.7
20260504032009 16 360 29.0 0.0 0.00 0.00 0.00 37 1001.5
20260504031509 16 360 33.8 0.0 0.00 0.00 0.00 37 1001.4
20260504031008 16 360 37.0 0.0 0.00 0.00 0.00 36 1001.2
20260504030508 16 360 33.8 0.0 0.00 0.00 0.00 36 1000.9
20260504030008 17 360 27.4 0.0 0.00 0.00 0.00 34 1000.8
20260504025007 20 360 20.9 0.0 0.00 0.00 0.00 32 999.8
20260504024506 20 360 20.9 0.0 0.00 0.00 0.00 33 999.8
20260504024006 20 360 22.5 0.0 0.00 0.00 0.00 32 999.8
20260504023507 20 360 22.5 0.0 0.00 0.00 0.00 33 999.7
20260504023007 20 360 24.1 0.0 0.00 0.00 0.00 32 999.7
20260504022507 20 360 24.1 0.0 0.00 0.00 0.00 32 999.7
20260504022006 20 360 24.1 0.0 0.00 0.00 0.00 32 999.7
20260504021506 20 360 25.7 0.0 0.00 0.00 0.00 32 999.6
20260504021006 21 360 27.4 0.0 0.00 0.00 0.00 31 999.6
20260504020505 21 360 27.4 0.0 0.00 0.00 0.00 31 999.5
20260504020009 21 360 25.7 0.0 0.00 0.00 0.00 31 999.5
20260504015007 21 360 27.4 0.0 0.00 0.00 0.00 31 999.5
20260504014505 21 360 27.4 0.0 0.00 0.00 0.00 30 999.5
20260504014009 22 360 29.0 0.0 0.00 0.00 0.00 29 999.5
20260504013508 22 360 29.0 0.0 0.00 0.00 0.00 28 999.5
20260504013005 22 360 29.0 0.0 0.00 0.00 0.00 26 999.5
20260504012508 22 360 29.0 0.0 0.00 0.00 0.00 25 999.4
20260504012005 22 360 27.4 0.0 0.00 0.00 0.00 23 999.5
20260504011505 22 360 27.4 0.0 0.00 0.00 0.00 22 999.5
20260504011004 23 360 27.4 0.0 0.00 0.00 0.00 21 999.5
20260504010506 23 360 22.5 0.0 0.00 0.00 0.00 23 999.6
20260504010004 23 360 22.5 0.0 0.00 0.00 0.00 23 999.5
20260504005003 23 360 25.7 0.0 0.00 0.00 0.00 23 999.6
20260504004505 23 360 29.0 0.0 0.00 0.00 0.00 23 999.7
20260504004001 23 360 30.6 0.0 0.00 0.00 0.00 22 999.7
20260504003501 23 360 32.2 0.0 0.00 0.00 0.00 21 999.7
20260504003001 23 360 32.2 0.0 0.00 0.00 0.00 21 999.8
20260504002600 24 360 32.2 0.0 0.00 0.00 0.00 21 999.9
20260504002059 24 360 32.2 0.0 0.00 0.00 0.00 20 1000.0
20260504001600 24 360 32.2 0.0 0.00 0.00 0.00 20 1000.1
20260504001059 24 360 33.8 0.0 0.00 0.00 0.00 20 1000.0
20260504000558 24 360 35.4 0.0 0.00 0.00 0.00 21 1000.1
20260504000107 24 360 33.8 0.0 0.00 0.00 0.00 21 1000.1
20260503235559 25 360 32.2 0.0 0.00 0.00 0.00 21 1000.0
20260503235058 24 360 29.0 0.0 0.00 0.00 0.00 23 1000.2
20260503234556 24 360 24.1 0.0 0.00 0.00 0.00 24 1000.3
20260503234055 24 360 24.1 0.0 0.00 0.00 0.00 25 1000.5
20260503233556 23 360 25.7 0.0 0.00 0.00 0.00 25 1000.6
20260503233054 24 360 30.6 0.0 0.00 0.00 0.00 24 1000.8
20260503232054 24 360 24.1 0.0 0.00 0.00 0.00 24 1000.9
20260503231554 24 360 24.1 0.0 0.00 0.00 0.00 24 1001.2
20260503231056 24 360 24.1 0.0 0.00 0.00 0.00 24 1001.2
20260503230555 24 360 25.7 0.0 0.00 0.00 0.00 24 1001.4
20260503230052 24 360 25.7 0.0 0.00 0.00 0.00 22 1001.5
20260503225551 24 360 27.4 0.0 0.00 0.00 0.00 22 1001.6
20260503225049 24 360 30.6 0.0 0.00 0.00 0.00 22 1001.8
20260503224557 24 360 29.0 0.0 0.00 0.00 0.00 22 1001.9